Location: Bailey Volunteer Fire Department
(33.4359°N, 96.1680°W)
Time: 17:57:29
(UTC+00:00)

Cosmos 372 Rocket - Pass Details

Date: 13 December 2025
Orbit: 734 x 761 km, 74.1° (Epoch: 14 January)

Event Time Altitude Azimuth Distance (km) Brightness Sun altitude
Rises 23:44:12 0° 188° (S) 3,191 7.7 -5.8°
Reaches altitude 10° 23:46:34 10° 185° (S) 2,266 6.9 -6.2°
Maximum altitude 23:51:39 66° 104° (ESE) 817 4.0 -7.2°
Drops below altitude 10° 23:56:43 10° 23° (NNE) 2,261 6.0 -8.2°
Sets 23:59:05 0° 21° (NNE) 3,184 6.8 -8.6°
